Weather History for Nagpur Sonegaon, India

Change the Weather History Date:

Monday, March 11, 2013

  Actual Average Record
Temperature  
Mean Temperature 83 °F -  
Max Temperature 102 °F 100 °F - ()
Min Temperature 64 °F 70 °F - ()
Cooling Degree Days 18    
Growing Degree Days 33 (Base 50)    
Moisture  
Dew Point 50 °F    
Average Humidity 33    
Maximum Humidity 68    
Minimum Humidity 13    
Precipitation  
Precipitation 0.00 in 0.02 in - ()
Sea Level Pressure  
Sea Level Pressure 29.83 in    
Wind  
Wind Speed 2 mph ()    
Max Wind Speed 25 mph    
Max Gust Speed -    
Visibility 2.7 miles    
Events      
T = Trace of Precipitation, MM = Missing Value Source: Averaged Metar Reports

Daily Weather History Graph

Daily Weather History Graph

Search for Another Location

Airport:

Trip Planner

Search our weather history database for the weather conditions in past years. The results will help you decide how hot, cold, wet, or windy it might be!

Date:

Astronomy

Mar. 11, 2013 Rise Set
Actual Time 6:26 AM IST 6:21 PM IST
Civil Twilight 6:03 AM IST 6:44 PM IST
Nautical Twilight 5:38 AM IST 7:09 PM IST
Astronomical Twilight 5:12 AM IST 7:35 PM IST
Moon 5:43 AM IST (3/11) 6:00 PM IST (3/11)
Length of Visible Light 12h 40m
Length of Day
11h 55m
Waning Crescent, 0% of the Moon is Illuminated
Mar 11
Waning Crescent
Mar 12
New
Mar 19
First Quarter
Mar 27
Full
Apr 3
Last Quarter

Hourly Weather History & Observations

Time (IST) Temp. Heat Index Dew Point Humidity Pressure Visibility Wind Dir Wind Speed Gust Speed Precip Events Conditions
12:10 AM 73.4 °F - 53.6 °F 50% 29.86 in 3.1 mi NW 3.5 mph - N/A   Haze
1:10 AM 73.4 °F - 51.8 °F 47% 29.86 in 3.1 mi Calm Calm - N/A   Haze
2:10 AM 71.6 °F - 51.8 °F 50% 29.83 in 3.1 mi NW 2.3 mph - N/A   Haze
2:30 AM 69 °F - 53 °F 45% 29.82 in 2 mi WNW 3.5 mph - -   Haze
3:10 AM 68.0 °F - 51.8 °F 56% 29.83 in 3.1 mi Calm Calm - N/A   Haze
4:10 AM 66.2 °F - 51.8 °F 60% 29.83 in 3.1 mi Calm Calm - N/A   Haze
5:10 AM 64.4 °F - 50.0 °F 59% 29.83 in 3.1 mi Calm Calm - N/A   Haze
5:30 AM 65 °F - 54 °F 59% 29.82 in 2 mi Calm Calm - -   Haze
6:10 AM 64.4 °F - 53.6 °F 68% 29.83 in 2.5 mi Calm Calm - N/A   Haze
7:10 AM 68.0 °F - 55.4 °F 64% 29.86 in 1.6 mi Calm Calm - N/A   Haze
8:10 AM 82.4 °F 81.4 °F 53.6 °F 37% 29.89 in 1.6 mi Calm Calm - N/A   Haze
8:30 AM 81 °F - 56 °F 32% 29.86 in 1 mi Calm Calm - -   Haze
9:10 AM 89.6 °F 87.3 °F 53.6 °F 29% 29.92 in 1.9 mi Calm Calm - N/A   Haze
10:10 AM 95.0 °F 93.7 °F 57.2 °F 28% 29.92 in 2.5 mi NNE 2.3 mph - N/A   Haze
12:10 PM 100.4 °F 98.4 °F 53.6 °F 21% 29.89 in 3.7 mi West 5.8 mph - N/A   Partly Cloudy
1:10 PM 102.2 °F 100.4 °F 53.6 °F 20% 29.83 in 3.7 mi SSW 4.6 mph - N/A   Partly Cloudy
2:10 PM 105.8 °F - 51.8 °F 17% 29.80 in 3.7 mi SW 6.9 mph - N/A   Partly Cloudy
2:30 PM 102 °F - 54 °F 13% 29.72 in 2 mi West 2.3 mph - -   Partly Cloudy
3:10 PM 104.0 °F - 50.0 °F 16% 29.80 in 3.7 mi SSW 5.8 mph - N/A   Scattered Clouds
4:10 PM 102.2 °F - 48.2 °F 16% 29.77 in 3.7 mi South 4.6 mph - N/A   Scattered Clouds
5:10 PM 102.2 °F - 44.6 °F 14% 29.77 in 3.7 mi SSW 4.6 mph - N/A   Partly Cloudy
5:30 PM 95 °F - 56 °F 18% 29.70 in 2 mi South 4.6 mph - -   Partly Cloudy
6:10 PM 100.4 °F - 41.0 °F 13% 29.80 in 3.7 mi South 5.8 mph - N/A   Partly Cloudy
7:10 PM 95.0 °F - 39.2 °F 14% 29.83 in 3.1 mi West 4.6 mph - N/A   Haze
8:10 PM 91.4 °F - 39.2 °F 16% 29.83 in 2.5 mi NW 4.6 mph - N/A   Haze
8:30 PM 79 °F - 50 °F 25% 29.81 in 2 mi Calm Calm - -   Haze
9:10 PM 87.8 °F - 41.0 °F 19% 29.86 in 2.5 mi Calm Calm - N/A   Haze
10:10 PM 87.8 °F - 41.0 °F 19% 29.89 in 2.5 mi Calm Calm - N/A   Haze
11:10 PM 84.2 °F - 41.0 °F 22% 29.89 in 2.5 mi Calm Calm - N/A   Haze
11:30 PM 76 °F - 50 °F 29% 29.86 in 2 mi SW 25.3 mph - -   Haze